Vertical_Velocity
-1 -0 -0 -0 -0 -0 0 0 0 -0 -0 -1 -1 -0 -1 -1 -1 -1 -0 -1 -1 -0 -0 -0 -1 -1 -1 -0 -0 -1 -1 -1 -1 -1 -1 -1 -1 -1 -1 -1 -1 -1 -1 -1 -1 -1 -0 -0 0 0 0 -0 -0 -0 0 0 -0 -0 -0 -0 0 0 -0 -0 -0 -0 -0 -0 -0 -0 -0 -0 -0 -0 -0 -0 -0 -0 -0 -0 0 -0 -0 -0 -0 -0 -0 -0 -0 -0 -1 -1 -0 -0 -0 -1 -1 -1 -1 -1 -1 -1 -1
-1 -1 -1 -0 -0 -0 0 0 0 -0 -1 -1 -1 -1 -1 -1 -1 -1 -1 -1 -1 -0 -0 -0 -0 -1 -0 -0 -0 -1 -1 -1 -1 -1 -1 -1 -1 -1 -1 -1 -1 -1 -1 -1 -1 -1 -0 -0 0 0 0 -0 -0 0 0 0 -0 -0 -1 -0 -0 -0 -0 0 0 -0 -0 -0 -0 -0 -0 -0 0 0 0 -0 -0 -0 -0 -0 -0 -0 -0 -0 -0 -0 -0 -0 -0 -0 -0 -1 -1 -1 -1 -1 -1 -1 -1 -1 -1 -1 -1
-0 -1 -1 -1 -1 -0 -0 0 -0 -1 -1 -1 -1 -1 -1 -0 -0 -1 -1 -1 -1 -0 -0 -0 -0 -0 -0 -0 -0 -1 -1 -1 -1 -1 -1 -1 -1 -1 -1 -1 -1 -1 -1 -1 -1 -1 -1 -0 -0 0 -0 -0 -0 -0 0 0 0 -0 -0 -0 -0 -0 -0 0 0 0 -0 -0 -0 -0 -0 -0 -0 0 0 -0 -0 -0 -0 -0 -0 -0 -0 -0 -0 -0 -0 -0 -0 -0 -0 -0 -1 -1 -1 -1 -1 -1 -1 -1 -1 -1 -1
-0 -1 -1 -1 -1 -0 -0 -0 -0 -1 -2 -2 -2 -1 -1 -0 -0 -0 -1 -1 -1 -0 -0 -0 -0 -0 -0 -0 -0 -1 -1 -1 -1 -1 -1 -1 -1 -1 -1 -1 -1 -1 -1 -1 -1 -1 -1 -0 -0 -0 -0 -0 -0 -0 -0 0 0 -0 -0 -0 -0 0 -0 0 0 0 0 -0 -0 -0 -0 -0 0 0 0 -0 -0 -0 -0 -0 -0 -0 -1 -1 -1 -1 -0 -0 -0 -1 -1 -1 -1 -1 -1 -1 -1 -1 -0 -1 -1 -1 -1
-0 -1 -1 -1 -0 -0 -0 -0 -0 -1 -2 -2 -2 -2 -1 -0 0 0 -1 -1 -1 -0 -0 -0 0 0 0 -0 -0 -1 -1 -1 -1 -1 -1 -1 -1 -1 -1 -1 -1 -1 -1 -0 -0 -0 -0 -0 -0 -0 -0 -0 -0 -0 -0 -0 -0 -0 -0 -0 0 0 0 0 0 0 0 0 0 -0 -0 0 0 0 -0 -0 -0 -0 -0 -0 -1 -1 -1 -1 -1 -1 -1 -1 -1 -1 -1 -1 -1 -1 -1 -1 -1 -1 -0 -1 -1 -1 -1
0 -0 -0 -0 -0 -0 -0 -0 -0 -1 -2 -2 -2 -2 -2 -1 -0 0 -1 -1 -1 -0 -0 0 0 0 0 -0 -0 -1 -1 -1 -1 -1 -1 -1 -1 -1 -1 -1 -1 -1 -1 -0 -0 -0 -0 -0 -0 -0 -0 -0 -0 -0 -0 -0 -0 -0 -0 0 0 0 0 0 0 0 0 0 0 0 -0 0 -0 -0 -0 -0 -0 -0 -0 -1 -1 -1 -1 -1 -1 -1 -1 -1 -1 -1 -1 -0 -0 -1 -1 -1 -1 -0 -0 -1 -1 -1 -1
0 0 -0 -0 -0 0 0 0 -0 -1 -1 -2 -1 -1 -2 -2 -1 -0 -1 -1 -1 -0 -0 0 0 0 0 0 -0 -0 -1 -1 -1 -1 -1 -1 -1 -1 -1 -1 -1 -1 -1 -0 -0 -0 -0 -0 -0 0 -0 -0 -0 -0 -0 -0 -0 -0 -0 0 0 0 0 0 0 0 0 0 0 0 -0 -0 -0 -0 -0 -0 -0 -0 -0 -1 -1 -1 -1 -1 -1 -1 -1 -1 -1 -1 -1 -0 -0 -0 -1 -1 -1 -1 -0 -1 -1 -1 -1
-0 -0 -0 0 0 0 0 0 -0 -0 -1 -1 -1 -1 -2 -2 -1 -1 -1 -1 -1 -0 -0 0 0 1 1 0 -0 -0 -1 -1 -1 -1 -1 -1 -1 -1 -1 -1 -1 -1 -1 -0 -0 -0 -0 -0 -0 -0 -0 -0 -0 -0 -0 -0 -0 -0 -0 -0 -0 0 0 1 1 0 0 0 0 0 -0 -0 -0 -0 -0 -0 -0 -0 -0 -1 -1 -1 -1 -1 -1 -1 -1 -1 -1 -1 -1 -1 -1 -1 -1 -1 -1 -1 -1 -1 -1 -1 -1
-0 -1 -1 -0 0 1 1 1 0 -0 -1 -1 -1 -2 -2 -2 -2 -1 -2 -1 -1 -0 -0 0 0 1 1 0 0 -0 -0 -1 -1 -1 -1 -1 -1 -1 -1 -1 -1 -1 -1 -0 -0 -0 -0 -0 -0 -0 -0 -0 -0 -0 -0 -0 -0 -0 -0 -0 -0 0 0 0 0 0 0 0 0 -0 -0 -0 -0 -0 -0 -0 -0 -0 -0 -0 -1 -1 -1 -1 -1 -1 -1 -1 -1 -1 -1 -1 -1 -1 -1 -1 -1 -1 -1 -1 -1 -1 -1
-1 -1 1 2 2 1 1 1 1 1 -0 -0 -1 -1 -2 -2 -2 -2 -2 -1 -1 -1 -0 0 0 1 1 0 0 0 -0 -0 -1 -1 -1 -1 -1 -1 -1 -1 -1 -1 -1 -0 -0 -0 -0 -0 -0 -0 -0 -0 -0 -0 -0 -0 -0 -0 -0 -0 -0 0 0 0 0 0 0 0 0 -0 -0 -0 -0 -0 -0 -0 -0 -0 0 -0 -0 -1 -1 -1 -1 -1 -1 -1 -1 -1 -1 -1 -1 -1 -1 -1 -1 -1 -1 -1 -1 -1 -1
-1 0 3 3 2 1 2 2 2 2 1 0 -0 -1 -1 -2 -2 -2 -2 -2 -1 -1 -1 -0 0 1 1 0 0 0 0 -0 -0 -1 -1 -1 -1 -1 -1 -1 -1 -1 -1 -0 -0 -0 -0 -0 -0 -0 -0 -0 -0 -0 -0 -0 -0 -0 -0 -0 0 0 0 0 0 0 0 0 0 -0 -0 -0 -0 -0 -0 -0 -0 -0 0 -0 -0 -1 -1 -1 -1 -1 -1 -1 -1 -1 -1 -1 -1 -1 -1 -1 -1 -1 -1 -1 -1 -1 -1
-0 0 3 3 2 2 3 4 4 3 1 1 0 -0 -1 -1 -2 -2 -2 -2 -1 -1 -1 -0 0 0 0 0 0 0 0 -0 -0 -0 -1 -1 -1 -1 -1 -1 -1 -1 -1 -1 -0 -0 -0 -0 -0 -0 -0 -0 -0 -0 -0 -0 -0 -0 -0 -0 0 0 0 0 0 0 0 0 -0 -0 -0 -0 -0 -0 -0 -0 -0 -0 0 0 -0 -0 -1 -1 -1 -1 -1 -1 -1 -1 -1 -1 -1 -1 -1 -1 -1 -1 -1 -1 -1 -0 -0
-0 0 4 3 1 0 3 6 6 4 1 1 1 0 -0 -0 -1 -2 -2 -2 -2 -1 -1 -0 -0 0 0 0 0 0 0 0 -0 -0 -0 -1 -1 -1 -1 -1 -1 -1 -1 -1 -1 -0 -0 -0 -0 -0 -0 -0 -0 -0 -0 -0 -0 -0 -0 -0 0 0 0 0 0 0 0 0 0 0 -0 -0 -0 -0 -0 -0 -0 -0 0 0 -0 -0 -1 -1 -1 -1 -1 -1 -1 -1 -1 -1 -1 -1 -1 -1 -1 -1 -1 -1 -1 -0 -0
-0 0 4 4 1 -1 1 5 6 4 3 1 1 1 0 -0 0 0 0 -2 -2 -1 -1 -1 -0 -0 -0 -0 0 0 0 0 -0 -0 -0 -0 -1 -1 -1 -1 -1 -1 -1 -1 -1 -1 -0 -0 -0 -0 -0 -0 -0 -0 -0 -0 -0 -0 -0 -0 -0 0 0 0 0 0 0 0 0 0 -0 -0 -0 -0 -0 -0 -0 -0 0 0 -0 -0 -1 -1 -1 -1 -1 -1 -1 -1 -1 -1 -1 -1 -1 -1 -1 -1 -1 -1 -0 -0 -0
-0 1 4 4 1 -1 -0 5 6 4 3 2 1 1 0 -0 1 2 2 -1 -2 -1 -1 -1 -0 -0 -0 -0 0 0 0 0 0 -0 -0 -0 -1 -1 -1 -1 -1 -1 -1 -1 -1 -1 -0 -0 -0 -0 -0 -0 -0 -0 -0 -0 -0 -0 -0 0 0 0 0 0 0 0 0 0 0 0 -0 -0 -0 -0 -0 -0 -0 -0 -0 0 -0 -0 -0 -1 -1 -1 -1 -1 -1 -1 -1 -1 -1 -1 -1 -1 -1 -1 -1 -1 -0 -0 -0
-0 0 1 4 1 -1 -1 4 6 5 3 1 1 1 0 0 0 1 1 -1 -1 -1 -1 -0 -0 -0 -0 -0 0 0 0 0 0 0 -0 -0 -1 -1 -1 -1 -0 -0 -1 -1 -1 -0 -0 -0 -0 -0 -0 -0 -0 -0 -0 -0 -0 -0 0 0 0 0 0 0 0 0 0 0 0 0 -0 -0 -0 -0 -0 -0 -0 -0 -0 -0 -0 -0 -0 -0 -1 -1 -1 -1 -1 -1 -1 -1 -1 -1 -1 -1 -1 -1 -0 -0 -0 -0 -0
-0 -0 -0 3 2 1 -1 4 6 5 3 0 0 1 0 0 -0 -0 -1 -1 -1 -0 -0 -0 -0 -0 -0 -0 0 0 1 1 0 0 -0 -0 -1 -1 -1 -0 -0 -0 -0 -0 -0 -0 -0 -0 -0 -0 -0 -0 -0 -0 -0 -0 -0 0 0 0 0 0 0 0 0 0 0 0 0 0 0 -0 -0 -0 -0 -0 -0 -0 -0 -0 -0 -0 -0 -0 -0 -1 -1 -1 -1 -1 -1 -1 -1 -1 -1 -1 -0 -0 -0 -0 -0 -0 -0
-0 -0 -0 0 1 2 2 4 5 5 2 1 1 1 0 -0 -0 -1 -1 -1 -0 -0 0 -0 -0 -0 -0 -0 0 0 1 1 1 0 0 -0 -1 -1 -1 -0 -0 -0 -0 -0 -0 -0 -0 -0 -0 -0 -0 -0 -0 -0 -0 -0 0 0 0 0 0 0 0 0 0 0 0 0 0 0 0 -0 -0 -0 -1 -1 -1 -1 -0 -0 -0 -0 -0 -0 -0 -0 -0 -1 -1 -1 -1 -1 -1 -1 -1 -1 -0 -0 -0 -0 -0 -0 -0
0 0 0 0 0 2 3 6 5 4 2 3 2 1 -0 -1 -0 -0 -0 -0 -0 0 0 0 -0 -0 -0 0 0 0 0 1 1 0 0 -0 -1 -1 -1 -0 -0 0 -0 -0 -0 -0 -0 -0 -0 -0 -0 -0 -0 -0 -0 -0 0 0 0 0 0 0 0 0 0 0 0 0 0 0 0 -0 -0 -0 -1 -1 -1 -1 -0 -0 -0 -0 -0 -0 -0 -0 -0 -0 -1 -1 -1 -1 -1 -1 -1 -1 -1 -0 -0 -0 -0 -0 -0
0 1 1 1 0 1 2 9 7 3 2 4 3 1 -1 -1 -1 -0 -0 -0 0 1 1 0 -0 -0 0 0 0 0 0 1 1 0 0 -0 -0 -1 -1 -0 0 0 -0 -0 -0 -0 -0 -0 -0 -0 -0 -0 -0 -0 -0 0 0 0 0 0 0 0 0 0 0 0 0 0 0 0 0 -0 -0 -0 -0 -1 -1 -1 -1 -0 -0 0 -0 -0 -0 -0 -1 -1 -1 -1 -1 -1 -1 -1 -1 -1 -1 -1 -1 -1 -0 -0 -0
1 1 2 1 0 -0 2 9 7 3 3 4 3 1 -0 -1 -1 -0 -0 0 1 1 1 0 -0 0 0 0 0 0 0 0 0 0 0 -0 -0 -1 -1 -0 -0 0 -0 -0 -0 -0 -1 -1 -1 -1 -0 -0 -0 -0 -0 0 0 0 0 0 0 0 0 0 0 0 0 0 0 0 0 -0 -0 -0 -0 -1 -1 -1 -1 -0 -0 0 0 -0 -0 -1 -1 -1 -1 -1 -1 -1 -1 -1 -1 -1 -1 -1 -1 -1 -1 -1 -1
0 1 1 0 -0 2 9 10 6 3 3 3 2 1 -0 -1 -1 -0 -0 1 2 1 1 -0 -0 0 0 0 0 0 0 0 0 0 0 -0 -0 -1 -1 -0 -0 0 -0 -0 -0 -1 -1 -1 -1 -1 -0 -0 -0 -0 0 0 0 0 0 0 0 0 0 0 0 0 -0 0 0 0 -0 -0 -0 -0 -0 -1 -1 -1 -0 -0 -0 -0 0 -0 -0 -0 -1 -1 -1 -1 -1 -1 -1 -1 -1 -1 -1 -1 -1 -1 -1 -1 -1
-0 0 0 -1 -1 4 19 16 10 5 2 1 1 1 -0 -0 -0 0 1 2 2 1 0 -0 -0 0 1 0 0 0 0 0 0 0 0 -0 -0 -1 -1 -1 -0 -0 -0 -0 -0 -1 -1 -1 -1 -1 -0 -0 -0 -0 0 0 0 0 0 0 0 0 0 0 0 0 -0 0 0 -0 -0 -0 -0 -0 -0 -0 -0 -0 -0 -0 -0 -0 -0 -0 -0 -0 -1 -1 -1 -1 -1 -1 -1 -1 -1 -1 -1 -1 -1 -1 -1 -1 -1
-1 -1 -1 -2 -2 3 19 19 14 6 -0 -0 2 3 -0 0 0 1 1 2 2 1 -0 -1 -0 0 1 0 0 -0 0 0 0 0 0 -0 -0 -1 -1 -1 -0 -0 -0 -0 -1 -1 -1 -1 -1 -1 -0 -0 -0 0 0 0 0 0 0 0 0 0 0 0 0 0 0 0 0 0 0 0 0 -0 -0 -0 -0 -0 -0 -0 -0 -0 -0 -0 -0 -1 -1 -1 -1 -1 -1 -1 -1 -1 -1 -1 -1 -1 -1 -1 -1 -1 -1
-1 -1 -2 -2 -3 -1 7 10 9 6 1 2 4 4 1 0 0 1 2 2 1 0 -1 -1 -0 0 1 0 -0 -0 0 0 0 0 0 -0 -0 -1 -1 -1 -1 -0 -0 -0 -1 -1 -1 -1 -1 -1 -1 -0 -0 0 0 0 0 0 0 0 0 1 1 0 0 0 0 0 0 0 0 0 0 0 -0 -0 -0 -0 -0 -0 -0 -0 -0 -0 -0 -1 -1 -1 -1 -1 -1 -1 -1 -1 -1 -1 -1 -1 -1 -1 -1 -1 -1
-1 -1 -2 -2 -3 -2 -0 2 3 4 2 2 6 8 2 0 -0 0 2 1 0 -1 -1 -1 -0 0 1 0 -0 -0 -0 0 0 -0 -0 -0 -0 -1 -1 -1 -1 -0 -0 -1 -1 -1 -1 -1 -1 -1 -1 -0 -0 -0 -0 -0 0 0 0 0 1 1 1 1 1 0 0 0 0 0 0 0 0 0 0 0 -0 -0 -0 -0 -0 -0 -0 -0 -0 -1 -1 -1 -1 -1 -1 -1 -1 -1 -1 -1 -1 -1 -1 -1 -1 -1 -1
0 -0 -1 -2 -3 -2 -1 -0 0 0 -0 -0 7 12 4 4 2 0 2 1 -0 -1 -1 -1 -0 0 1 0 -0 -0 -0 -0 -0 -0 -0 -0 -1 -1 -1 -1 -1 -0 -0 -1 -1 -1 -1 -1 -1 -0 -0 -0 -0 -0 -0 -0 -0 0 0 0 1 1 1 1 1 1 0 0 0 0 0 0 0 0 0 0 0 -0 -0 -0 -0 -0 -0 -0 -0 -0 -1 -1 -1 -1 -1 -1 -1 -1 -1 -1 -1 -1 -1 -1 -1 -1 -1
1 1 1 -1 -2 -2 -1 -1 -0 -0 -0 -1 3 7 5 5 3 1 2 1 -1 -2 -2 -1 -0 0 1 0 -0 -0 -0 -0 -0 -0 -1 -1 -1 -1 -1 -1 -1 -0 -0 -1 -1 -1 -1 -1 -1 -0 -0 -0 -0 -0 -0 -0 -0 0 0 0 1 1 1 1 1 1 1 1 1 1 0 0 0 0 0 0 0 0 -0 -0 -0 -0 -0 -0 -0 -0 -1 -1 -1 -1 -1 -1 -1 -1 -1 -1 -1 -1 -1 -1 -1 -1 -2
2 5 9 9 4 0 1 0 0 0 -0 -0 0 2 5 3 1 0 1 1 -0 -2 -2 -1 -0 0 1 0 -0 -0 -0 -0 -0 -1 -1 -1 -1 -1 -1 -1 -1 -1 -0 -0 -0 -1 -1 -1 -1 -0 -0 -0 -0 -0 -0 -0 -0 0 0 0 1 1 1 1 1 1 1 1 1 1 0 0 0 0 0 0 0 0 -0 -0 -0 -0 -0 -0 -0 -1 -1 -1 -1 -1 -1 -1 -1 -1 -1 -1 -1 -1 -1 -1 -1 -1 -1
2 9 21 21 13 4 1 2 2 1 0 1 1 2 3 3 2 1 1 1 0 -1 -2 -1 -0 0 0 0 -0 -0 -0 -0 -1 -1 -1 -1 -1 -1 -1 -1 -1 -1 -0 -0 -0 -0 -0 -0 -0 -0 -0 -0 -0 -0 -0 -0 0 0 0 1 1 1 1 1 1 1 1 1 1 1 0 0 0 0 0 0 0 -0 -0 -0 -1 -1 -1 -1 -1 -1 -1 -1 -1 -1 -1 -1 -1 -1 -1 -1 -1 -1 -1 -1 -1 -1 -1
1 7 18 20 14 6 2 1 1 2 2 2 2 2 2 3 3 2 2 1 0 -0 -2 -1 -0 0 0 -0 -0 -0 -1 -0 -1 -1 -2 -1 -1 -1 -1 -1 -1 -1 -0 -0 -0 -0 -0 -0 -0 -1 -1 -0 -0 -0 -0 0 0 0 1 1 1 1 1 1 1 1 1 1 1 1 0 0 0 0 0 0 0 -0 -0 -0 -1 -1 -1 -1 -1 -1 -1 -1 -1 -1 -1 -1 -1 -1 -1 -1 -1 -1 -1 -1 -1 -1 -1
2 4 9 14 13 9 4 1 2 3 2 2 2 2 2 3 3 3 2 2 1 -0 -2 -1 -0 0 -0 -0 -0 -1 -0 -1 -1 -1 -2 -1 -1 -1 -1 -1 -1 -1 -0 0 0 -0 -0 -0 -0 -1 -1 -0 -0 -0 -0 -0 0 0 0 1 1 1 1 1 1 1 1 1 1 1 0 0 0 0 0 0 0 -0 -0 -0 -1 -1 -1 -1 -1 -1 -1 -1 -1 -1 -1 -1 -1 -1 -1 -1 -1 -1 -1 -1 -1 -1 -1
2 3 4 10 14 13 8 5 4 3 1 2 2 2 2 2 2 3 3 2 0 -1 -2 -2 -1 -0 -0 -0 -1 -1 -0 -0 -1 -1 -2 -1 -1 -1 -1 -1 -0 -0 -0 0 0 -0 -0 -0 -0 -1 -1 -0 -0 -0 -0 -0 0 0 0 0 1 1 1 1 1 1 1 1 1 1 0 0 0 0 0 0 0 0 -0 -0 -0 -1 -1 -1 -1 -1 -1 -1 -1 -1 -1 -1 -1 -1 -1 -1 -1 -1 -2 -2 -1 -1 -1
2 2 1 5 9 12 12 8 5 2 0 1 1 2 2 2 2 2 2 1 -0 -1 -3 -2 -1 -0 -0 -0 -0 -0 0 -0 -0 -1 -1 -1 -1 -1 -0 -0 -0 -0 0 0 -0 -0 -0 -0 -1 -1 -1 -1 -1 -0 -0 -0 -0 0 0 0 1 1 1 1 1 1 1 1 1 1 1 1 0 0 0 0 0 0 0 -0 -0 -0 -1 -1 -1 -1 -1 -1 -1 -1 -1 -1 -1 -1 -1 -1 -1 -2 -2 -2 -1 -1 -1
2 2 0 -0 3 7 10 10 8 5 1 0 1 2 1 2 2 2 1 1 -0 -1 -2 -2 -1 -0 0 0 0 0 1 1 0 -0 -0 -0 -0 -0 0 -0 -0 0 0 0 -0 -0 -0 -0 -1 -1 -1 -1 -1 -1 -0 -0 -0 0 0 0 1 1 1 1 1 1 1 1 1 1 1 1 0 0 0 0 0 0 0 -0 -0 -0 -0 -0 -1 -0 -0 -0 -1 -1 -1 -1 -1 -1 -1 -1 -1 -1 -2 -2 -1 -1 -1
2 2 1 -1 -1 1 6 8 8 7 3 2 1 1 1 2 2 2 1 1 0 -0 -2 -1 -1 -0 0 0 1 1 1 1 1 1 0 0 0 0 0 0 -0 -0 0 0 -0 -0 -0 -0 -1 -1 -1 -1 -1 -1 -0 -0 0 0 0 0 1 1 1 1 1 1 1 1 1 1 1 1 1 0 0 0 0 0 0 -0 -0 -0 -0 -0 -0 -0 -0 -0 -1 -1 -2 -2 -2 -2 -2 -2 -2 -2 -2 -2 -1 -1 -1
2 2 1 -0 -2 -1 1 4 7 7 4 3 2 1 0 1 3 3 2 1 -0 -0 -1 -1 -1 -1 -0 0 0 1 1 2 1 1 0 0 0 0 0 -0 -0 -0 0 -0 -0 -0 -0 -0 -1 -1 -1 -1 -1 -0 -0 0 0 0 0 0 0 1 1 1 1 1 1 1 1 1 1 1 1 1 0 0 0 0 0 -0 -0 -0 -0 -0 -0 -0 -0 -1 -1 -2 -2 -2 -2 -2 -2 -2 -2 -2 -2 -2 -1 -1 -1
2 1 1 0 -0 -1 -1 1 5 8 6 3 2 1 0 0 2 4 3 1 -0 -1 -1 -0 -1 -3 -1 -1 -1 -0 0 1 1 1 0 0 0 1 0 -0 -0 -0 -0 -1 -0 -0 -0 -0 -1 -0 -1 -1 -0 -0 -0 0 0 0 0 0 0 1 1 1 1 1 1 1 1 1 1 1 1 1 0 0 0 0 0 -0 -0 -0 -0 -0 -0 -0 -0 -1 -1 -2 -2 -2 -2 -2 -2 -2 -2 -2 -2 -2 -2 -1 -1
1 1 1 1 1 0 -0 0 2 4 4 2 0 -0 0 0 1 2 2 4 3 2 -0 2 -1 -4 -2 -2 -1 -1 -0 0 0 0 -0 0 0 0 -0 -1 -1 -1 -1 -1 -0 -0 -0 -0 -0 -0 -0 -0 -0 -0 0 0 0 0 0 0 0 1 1 1 1 1 1 1 1 1 1 1 1 1 0 1 1 1 0 -0 -0 -0 0 0 -0 -0 -0 -1 -1 -2 -2 -2 -2 -2 -2 -2 -2 -2 -2 -2 -2 -2 -1
-0 0 1 1 1 1 1 0 -0 -0 2 2 0 -1 -0 0 1 1 -1 4 8 8 -0 3 1 -3 -4 -2 -1 -1 -1 0 0 0 -0 0 0 0 -0 -1 -1 -1 -1 -0 -0 -0 -0 -0 -0 -0 -0 -0 -0 -0 0 0 0 0 0 0 0 1 1 1 1 1 1 1 1 1 0 0 0 0 1 1 1 0 0 0 0 0 0 -0 -0 -1 -1 -1 -1 -2 -2 -2 -1 -1 -2 -2 -2 -2 -2 -2 -2 -1 -1
-1 -0 1 2 2 2 2 0 -1 -1 5 9 7 3 1 2 2 1 -1 1 6 7 -0 3 2 -2 -4 -2 -1 -0 -1 -0 0 0 -0 0 1 0 -0 -1 -1 -1 -1 -0 -0 -0 -0 -0 -0 -1 -1 -1 -0 0 0 -0 -0 0 0 0 1 1 1 1 1 1 1 1 1 1 0 0 0 0 1 1 1 0 0 0 0 0 0 -0 -1 -1 -1 -1 -1 -2 -1 -1 -1 -1 -2 -2 -2 -2 -2 -2 -1 -1 -1
-1 -0 1 4 4 3 2 0 -1 0 8 16 15 10 8 7 5 4 3 1 1 2 0 2 2 -0 -3 -2 -1 -0 -1 -1 -0 -0 0 0 0 0 -0 -1 -1 -1 -1 -0 0 -0 -0 -0 -1 -1 -1 -0 0 0 -0 -0 0 0 0 0 1 1 1 1 1 1 1 1 1 1 0 0 0 0 1 1 1 0 0 0 0 -0 -0 -1 -1 -2 -2 -1 -2 -2 -1 -1 -1 -1 -2 -2 -2 -2 -1 -1 -1 -1 -0
-2 -0 1 4 6 6 3 1 -1 0 5 14 15 13 14 13 11 9 6 2 0 -0 -0 1 2 1 -1 -1 -1 -0 -1 -1 -1 -0 -0 -0 -0 -0 -0 -0 -1 -1 -1 -0 -0 -0 -1 -1 -1 -1 -1 0 0 0 -0 0 0 0 0 0 1 1 1 1 1 1 2 2 1 1 0 0 0 1 1 1 0 0 0 0 0 -0 -0 -1 -1 -2 -1 -1 -2 -2 -1 -1 -1 -2 -2 -2 -1 -1 -1 -1 -0 -0 -0
-2 -1 -0 2 4 7 6 2 -0 -1 0 5 7 9 13 17 18 15 9 4 1 0 -1 1 2 2 0 0 0 -0 -0 -0 -0 -0 -1 -1 -1 -0 -0 -0 -1 -1 -1 -0 -0 -1 -1 -1 -1 -1 -0 0 0 -0 -0 0 0 0 0 1 1 1 1 1 1 2 2 2 1 1 0 0 1 1 1 0 0 0 0 0 -0 -0 -1 -1 -1 -1 -1 -1 -2 -2 -1 -2 -2 -2 -2 -2 -1 -1 -1 -1 -0 -0 -0
-1 -1 -0 -0 1 4 6 4 2 -1 -2 -0 1 3 7 15 20 20 14 6 2 -0 -0 1 2 2 2 2 1 1 0 -0 -1 -1 -2 -2 -2 -1 -1 -1 -1 -2 -1 -1 -1 -1 -1 -1 -1 -1 -0 0 0 -0 -0 0 0 0 1 1 1 1 1 1 1 2 2 1 1 0 0 1 1 1 0 -0 -0 0 0 -0 -0 -1 -1 -1 -1 -1 -1 -1 -2 -2 -2 -2 -3 -2 -2 -2 -2 -2 -1 -0 -0 -0 -1
-1 -1 -1 -0 0 1 2 4 3 0 -2 -2 -1 0 2 10 16 20 19 10 3 -1 -0 1 2 2 2 2 2 1 -0 -1 -2 -2 -3 -3 -3 -2 -2 -2 -2 -2 -1 -2 -1 -1 -1 -1 -0 -0 0 0 0 -0 0 0 0 1 2 2 1 1 1 1 2 2 2 1 1 0 0 1 0 0 -0 -0 -0 -0 -0 -0 -1 -1 -1 -1 -1 -1 -1 -1 -1 -2 -3 -3 -3 -2 -2 -2 -2 -2 -1 -0 -0 -1 -1
-2 -1 -1 -0 1 1 0 1 2 1 -0 -1 -2 -1 0 4 9 15 20 14 6 1 -0 1 1 1 1 4 6 5 -0 -2 -2 -2 -3 -4 -4 -3 -3 -2 -2 -2 -2 -2 -1 -1 -1 -0 0 0 0 0 0 0 0 0 1 2 2 1 1 1 1 1 2 2 1 0 0 0 0 0 -0 -1 -1 -1 -0 -0 -0 -1 -1 -1 -1 -1 -1 -1 -0 -1 -1 -2 -3 -3 -3 -2 -2 -2 -2 -2 -1 -1 -0 -1 -1
-3 -2 -2 -1 1 1 0 -0 0 1 0 -1 -2 -2 -1 2 4 7 12 14 10 5 2 2 1 1 2 7 10 8 2 -0 -1 -2 -3 -4 -4 -4 -4 -3 -2 -2 -1 -1 -1 -1 -1 0 1 0 0 0 0 0 0 1 2 2 1 1 1 1 1 2 2 1 0 0 0 0 0 -0 -1 -1 -1 -0 -0 -0 -1 -1 -1 -1 -1 -1 -1 -0 -0 -1 -1 -2 -3 -3 -2 -2 -3 -3 -3 -2 -1 -0 -0 -0 -0
-3 -3 -3 -1 0 1 1 -0 -0 0 1 -0 -1 -2 -2 2 4 5 5 9 10 9 5 3 2 3 4 6 7 7 5 2 -0 -2 -2 -4 -5 -5 -4 -1 -0 -1 -1 -0 -0 -0 -0 1 1 1 0 0 0 0 1 1 2 2 1 1 1 1 1 2 1 0 0 0 0 -0 -0 -1 -1 -1 -1 -0 -0 -0 -1 -1 -1 -1 -1 -1 -1 -0 -0 -0 -1 -2 -2 -2 -2 -2 -3 -3 -2 -2 -1 -1 -1 -0 -0
-2 -4 -3 -2 -1 0 0 -0 -0 -0 0 0 -0 -1 -2 0 3 6 7 6 6 6 5 3 2 3 5 4 4 5 7 5 1 -1 -2 -5 -6 -4 -1 0 1 0 -0 -0 -0 0 0 1 1 1 0 0 0 0 1 2 2 2 0 0 1 1 1 1 0 0 0 0 0 -0 -0 -1 -1 -1 -0 -0 -0 -0 -0 -0 -1 -1 -1 -1 -1 -0 0 -0 -1 -1 -1 -2 -2 -3 -3 -2 -2 -1 -1 -1 -1 -1 -1
-1 -3 -4 -3 -2 -1 -0 0 -0 -1 -1 0 0 -0 -2 -1 1 3 4 5 3 2 4 7 8 8 8 7 5 3 6 4 1 -1 -3 -6 -4 -0 2 1 1 1 -1 -1 -1 -0 0 1 1 1 1 -0 0 1 1 2 2 1 -0 0 1 1 1 0 0 0 1 0 -0 -1 -1 -1 -0 -0 0 0 0 -0 -0 -0 -0 -1 -1 -1 -1 0 0 -0 -1 -1 -1 -2 -3 -3 -2 -1 -1 -1 -1 -1 -1 -1 -1
2 -1 -4 -3 -3 -2 -1 -0 -0 -1 -1 -0 -0 -1 -2 3 4 2 -2 1 1 1 4 14 18 19 15 11 6 3 3 1 -0 -2 -3 -4 -1 2 2 1 0 -1 -4 -1 -1 -2 0 0 1 1 2 0 0 1 1 2 1 0 -0 1 1 1 0 0 0 0 1 -0 -1 -1 -1 -0 0 0 1 0 0 -0 -0 -0 -0 -1 -2 -1 -0 0 -0 -1 -1 -1 -1 -2 -2 -2 -1 -1 -1 -1 -1 -1 -1 -1 -1
4 2 -2 -3 -3 -3 -1 -0 -1 -2 -1 -0 -2 -3 -2 10 12 7 -1 -0 0 2 4 13 22 26 19 12 7 4 1 -0 -1 -1 -0 -0 -1 -1 -2 -2 -4 -6 -4 1 -1 -4 -1 1 2 2 2 1 0 0 1 1 1 -0 0 1 1 0 0 0 1 1 1 -1 -2 -2 -1 -0 1 1 1 1 0 -0 0 -0 -1 -1 -2 -1 0 0 -2 -2 -1 -1 -1 -1 -1 -1 -1 -1 -1 -1 -1 -1 -1 -0 -1
5 5 2 -2 -3 -3 -1 -1 -2 -2 -1 -1 -2 -4 -4 9 14 12 3 1 1 1 3 8 20 28 22 12 7 5 3 2 2 1 0 -2 -4 -4 -6 -6 -5 -3 1 2 -1 -4 -4 3 6 5 0 0 0 -0 -0 0 0 -0 1 1 0 -0 0 1 1 1 -0 -2 -2 -2 -0 0 1 1 1 1 0 0 0 -0 -1 -2 -2 -0 1 -0 -2 -1 -1 -1 -1 -1 -1 -1 -1 -1 -1 -1 -1 -1 -0 -0 -0
5 6 5 1 -1 -2 -2 -1 -1 -1 -2 -1 -2 -3 -6 -0 6 9 7 4 2 1 2 5 16 26 23 16 11 8 7 5 3 1 -1 -4 -4 -2 -4 -1 3 6 3 -1 -3 -3 0 8 9 5 -2 -1 -0 -0 -1 -0 0 0 1 1 0 -0 0 1 1 -0 -2 -3 -2 -1 0 1 1 2 1 0 0 0 0 -0 -1 -2 -1 1 1 -1 -2 -2 -1 -0 -0 -1 -1 -1 -1 -1 -1 -1 -1 -0 -0 -0 -0
4 6 7 4 1 -1 -2 -1 -0 -1 -1 -1 -2 -4 -6 -6 -4 0 4 4 3 2 2 4 13 22 25 23 18 12 8 5 1 -1 -2 -3 -1 1 1 3 3 2 -2 -4 -2 3 10 10 7 1 -6 -3 0 1 -2 -0 1 1 -0 0 -0 -0 0 0 -0 -1 -3 -3 -2 -0 0 1 2 2 1 0 0 0 0 -0 -1 -2 0 1 -0 -2 -3 -2 -1 -0 -0 -1 -1 -1 -1 -1 -1 -1 -1 -0 -0 -0 -0
3 5 6 6 3 0 -2 -1 -1 -1 -1 -1 -2 -3 -4 -4 -3 -2 -0 2 2 1 -0 3 12 21 28 28 22 14 8 4 -0 -2 -2 -1 -0 1 1 -1 -3 -4 -2 -1 5 10 10 6 3 -1 -10 -3 1 1 -2 -0 1 0 0 -0 -0 -0 -0 -0 -1 -2 -3 -2 -1 -0 0 2 2 1 0 0 0 0 -0 -1 -1 -1 1 0 -1 -3 -4 -2 -1 -0 -0 -1 -1 -1 -1 -1 -1 -1 -1 -0 -0 -0 -0
1 3 4 6 5 3 -0 -1 -1 -1 -1 -1 -2 -2 -3 -2 -2 -2 -2 -0 0 -0 0 4 12 21 26 25 20 14 8 2 -1 -3 -2 -1 -0 -1 -2 -2 -0 2 3 3 6 8 4 2 -2 -5 -6 -1 -1 -2 1 1 -0 -1 0 -0 -1 -0 -0 -0 -1 -2 -2 -2 -1 -0 1 2 2 1 0 0 0 -0 -0 -1 -0 0 1 -0 -2 -3 -3 -1 -1 -0 -0 -1 -1 -1 -1 -1 -1 -1 -1 -1 -1 -1 -0
-1 2 3 4 5 4 1 -1 -1 -1 -2 -1 -1 -1 -3 -4 -4 -3 -1 2 2 2 2 4 12 20 23 18 13 8 4 0 -1 -1 -1 -1 -2 -4 -3 -0 2 3 1 2 2 2 0 -2 -6 -6 1 1 -3 -4 1 1 0 -0 0 -0 -0 -0 -0 -0 -1 -2 -2 -2 -1 0 1 1 1 1 1 0 -0 -0 -0 -0 0 1 1 -1 -2 -3 -2 -1 -0 -0 -1 -1 -1 -1 -1 -1 -1 -1 -1 -1 -1 -1 -1
-2 0 2 2 3 4 3 1 -1 -3 -3 -1 -0 -1 -3 -6 -6 -4 3 4 4 3 2 2 10 20 23 14 6 1 0 -0 -0 -0 -0 -2 -5 -5 -0 2 1 1 0 2 2 2 1 -3 -4 -2 4 -0 -2 -2 -0 -1 0 2 1 -1 -1 -0 -0 -1 -1 -2 -2 -2 -1 0 2 1 1 1 1 0 0 0 -0 -0 1 1 0 -1 -2 -2 -1 -0 -0 -0 -1 -1 -1 -1 -1 -0 -0 -1 -1 -1 -1 -1 -1
-4 -1 1 1 2 3 4 2 -1 -3 -4 -2 -1 -2 -3 -6 -5 -2 3 4 3 2 1 1 8 17 24 15 8 3 3 4 3 1 -0 -2 -4 -3 4 4 3 2 4 4 3 3 1 -3 -2 1 3 -0 -1 -0 -1 -2 0 2 0 -1 -1 -0 -1 -1 -1 -1 -2 -2 -1 1 2 2 1 1 1 1 0 0 0 0 1 1 0 -0 -1 -2 -1 -0 -0 -1 -1 -1 -1 -1 -0 -0 -0 -0 -1 -1 -1 -1 -1
Height
5882 5883 5884 5885 5885 5886 5887 5887 5887 5887 5888 5888 5888 5889 5889 5889 5889 5889 5890 5890 5891 5892 5892 5892 5893 5893 5893 5894 5894 5894 5894 5894 5894 5894 5894 5895 5895 5895 5895 5896 5896 5896 5897 5897 5897 5897 5897 5897 5897 5897 5897 5897 5897 5897 5897 5897 5897 5897 5897 5897 5897 5897 5897 5897 5897 5897 5897 5897 5897 5897 5897 5896 5896 5896 5896 5895 5895 5895 5894 5894 5894 5893 5893 5893 5892 5892 5892 5891 5891 5891 5890 5890 5890 5890 5889 5889 5888 5888 5887 5887 5886 5886 5885
5881 5882 5882 5883 5884 5885 5885 5886 5886 5887 5887 5887 5887 5888 5888 5888 5888 5888 5889 5889 5890 5891 5891 5892 5892 5892 5892 5893 5893 5893 5893 5893 5893 5893 5894 5894 5894 5894 5895 5895 5895 5895 5896 5896 5896 5896 5896 5896 5897 5897 5897 5897 5897 5897 5897 5897 5897 5897 5897 5897 5897 5897 5897 5897 5897 5897 5897 5897 5897 5896 5896 5896 5896 5895 5895 5895 5894 5894 5894 5893 5893 5893 5892 5892 5892 5892 5891 5891 5891 5890 5890 5890 5889 5889 5888 5888 5888 5887 5887 5886 5886 5885 5885
5879 5880 5881 5882 5883 5883 5884 5885 5885 5885 5886 5886 5887 5887 5887 5887 5887 5887 5888 5888 5889 5890 5890 5891 5891 5892 5892 5892 5892 5892 5892 5892 5892 5892 5893 5893 5893 5893 5894 5894 5894 5895 5895 5895 5895 5895 5895 5896 5896 5896 5896 5896 5896 5896 5896 5896 5896 5896 5896 5896 5896 5896 5896 5896 5896 5896 5896 5896 5896 5896 5896 5896 5895 5895 5895 5894 5894 5894 5893 5893 5892 5892 5892 5892 5891 5891 5891 5890 5890 5890 5889 5889 5889 5888 5888 5887 5887 5887 5886 5886 5885 5885 5884
5878 5879 5880 5881 5881 5882 5883 5883 5884 5884 5884 5885 5886 5886 5887 5887 5887 5887 5887 5887 5888 5889 5889 5890 5890 5891 5891 5891 5891 5891 5892 5892 5892 5892 5892 5892 5892 5893 5893 5893 5893 5894 5894 5894 5894 5895 5895 5895 5895 5895 5895 5895 5895 5895 5896 5896 5896 5896 5896 5896 5896 5896 5896 5896 5896 5896 5896 5896 5896 5895 5895 5895 5895 5895 5894 5894 5893 5893 5892 5892 5892 5892 5891 5891 5891 5890 5890 5890 5889 5889 5889 5888 5888 5888 5887 5887 5887 5886 5886 5885 5884 5884 5883
5877 5877 5878 5879 5880 5881 5882 5882 5882 5883 5883 5884 5884 5885 5886 5886 5886 5886 5886 5887 5887 5888 5888 5889 5889 5890 5890 5890 5890 5890 5891 5891 5891 5891 5891 5892 5892 5892 5892 5892 5893 5893 5893 5893 5894 5894 5894 5894 5894 5894 5894 5894 5894 5895 5895 5895 5895 5895 5895 5895 5895 5895 5895 5895 5895 5895 5895 5895 5895 5895 5895 5895 5894 5894 5894 5893 5893 5892 5892 5892 5891 5891 5891 5891 5890 5890 5890 5889 5889 5889 5888 5888 5887 5887 5887 5886 5886 5885 5885 5884 5884 5883 5883
5875 5876 5877 5878 5879 5880 5880 5881 5881 5882 5882 5883 5883 5884 5885 5885 5885 5886 5885 5886 5886 5887 5887 5888 5888 5889 5889 5889 5889 5890 5890 5890 5890 5890 5891 5891 5891 5891 5891 5892 5892 5892 5892 5893 5893 5893 5893 5893 5893 5893 5893 5893 5894 5894 5894 5894 5894 5894 5894 5894 5894 5894 5894 5895 5895 5895 5895 5895 5895 5894 5894 5894 5894 5893 5893 5893 5892 5892 5892 5891 5891 5891 5890 5890 5890 5889 5889 5889 5888 5888 5888 5887 5887 5887 5886 5886 5885 5885 5884 5884 5883 5882 5882
5874 5874 5875 5876 5877 5878 5879 5880 5880 5880 5881 5882 5882 5883 5883 5884 5884 5884 5884 5885 5885 5886 5886 5887 5887 5888 5888 5888 5888 5889 5889 5889 5889 5889 5890 5890 5890 5890 5891 5891 5891 5891 5892 5892 5892 5892 5892 5892 5892 5892 5893 5893 5893 5893 5893 5893 5893 5893 5893 5894 5894 5894 5894 5894 5894 5894 5894 5894 5894 5894 5894 5893 5893 5893 5892 5892 5892 5891 5891 5891 5890 5890 5890 5889 5889 5889 5888 5888 5888 5887 5887 5887 5887 5886 5886 5885 5884 5884 5883 5883 5882 5882 5881
5872 5873 5873 5875 5876 5877 5877 5878 5878 5879 5879 5880 5881 5882 5882 5883 5883 5883 5883 5884 5884 5885 5885 5886 5886 5887 5887 5887 5887 5888 5888 5888 5888 5888 5889 5889 5889 5889 5890 5890 5890 5890 5891 5891 5891 5891 5891 5892 5892 5892 5892 5892 5892 5892 5892 5892 5892 5892 5892 5893 5893 5893 5893 5893 5893 5893 5893 5893 5893 5893 5893 5893 5892 5892 5892 5892 5891 5891 5890 5890 5890 5889 5889 5889 5889 5888 5888 5888 5888 5887 5887 5886 5886 5885 5885 5884 5884 5883 5882 5882 5881 5881 5880
5870 5871 5872 5873 5874 5875 5876 5877 5877 5877 5878 5879 5880 5880 5882 5882 5882 5882 5882 5883 5883 5884 5884 5885 5885 5886 5886 5886 5887 5887 5887 5887 5887 5887 5888 5888 5888 5888 5889 5889 5889 5889 5890 5890 5890 5890 5890 5891 5891 5891 5891 5891 5891 5891 5891 5892 5892 5892 5892 5892 5892 5892 5892 5892 5892 5892 5892 5892 5892 5892 5892 5892 5892 5892 5891 5891 5890 5890 5890 5889 5889 5889 5888 5888 5888 5888 5887 5887 5887 5886 5886 5886 5885 5885 5884 5883 5883 5882 5882 5881 5881 5880 5879
5868 5870 5872 5872 5873 5873 5874 5875 5876 5876 5877 5877 5878 5879 5880 5880 5881 5881 5881 5882 5882 5883 5883 5884 5884 5885 5885 5885 5886 5886 5886 5886 5886 5887 5887 5887 5887 5887 5888 5888 5888 5888 5889 5889 5889 5889 5889 5890 5890 5890 5890 5890 5890 5890 5890 5891 5891 5891 5891 5891 5891 5891 5891 5892 5892 5892 5892 5892 5892 5892 5892 5891 5891 5891 5890 5890 5890 5889 5889 5889 5888 5888 5888 5888 5887 5887 5887 5887 5886 5886 5885 5885 5884 5884 5883 5882 5882 5881 5881 5880 5880 5879 5878
5867 5868 5871 5871 5871 5871 5872 5873 5874 5874 5875 5876 5876 5877 5878 5879 5879 5879 5880 5880 5881 5882 5882 5883 5883 5883 5884 5884 5884 5885 5885 5885 5885 5886 5886 5886 5886 5886 5887 5887 5887 5887 5888 5888 5888 5888 5888 5888 5889 5889 5889 5889 5889 5889 5889 5890 5890 5890 5889 5890 5890 5890 5890 5891 5891 5891 5891 5891 5891 5891 5891 5891 5890 5890 5890 5889 5889 5888 5888 5888 5887 5887 5887 5887 5887 5887 5886 5886 5886 5885 5885 5884 5884 5883 5882 5882 5881 5880 5880 5879 5879 5878 5877
5864 5867 5871 5869 5868 5869 5871 5872 5873 5873 5873 5874 5875 5876 5877 5877 5877 5878 5878 5879 5879 5880 5881 5882 5882 5882 5883 5883 5883 5884 5884 5884 5884 5884 5885 5885 5885 5885 5886 5886 5886 5887 5887 5887 5887 5887 5887 5887 5888 5888 5888 5888 5888 5888 5888 5888 5889 5889 5889 5889 5889 5889 5889 5890 5890 5890 5890 5890 5890 5890 5890 5890 5889 5889 5889 5888 5888 5888 5887 5887 5887 5887 5886 5886 5886 5886 5885 5885 5885 5884 5884 5883 5883 5882 5882 5881 5880 5880 5879 5878 5877 5877 5876
5862 5864 5868 5866 5866 5867 5870 5872 5872 5872 5872 5872 5873 5874 5875 5876 5876 5877 5877 5877 5878 5879 5880 5880 5881 5881 5882 5882 5882 5882 5883 5883 5883 5883 5883 5884 5884 5884 5884 5885 5885 5885 5886 5886 5886 5886 5886 5887 5887 5887 5887 5887 5887 5887 5887 5887 5888 5888 5888 5888 5888 5888 5888 5889 5889 5889 5889 5889 5889 5889 5889 5889 5889 5888 5888 5888 5887 5887 5887 5886 5886 5886 5886 5885 5885 5885 5884 5884 5884 5883 5883 5882 5882 5881 5881 5880 5879 5879 5878 5877 5877 5876 5875
5860 5862 5864 5864 5864 5866 5868 5870 5870 5870 5870 5871 5871 5872 5873 5874 5875 5876 5876 5876 5876 5877 5878 5879 5879 5880 5880 5881 5881 5881 5882 5882 5882 5882 5882 5882 5883 5883 5883 5883 5884 5884 5884 5885 5885 5885 5885 5885 5886 5886 5886 5886 5886 5886 5887 5887 5887 5887 5887 5887 5887 5887 5887 5887 5888 5888 5888 5888 5888 5888 5888 5888 5888 5887 5887 5887 5887 5886 5886 5885 5885 5885 5885 5884 5884 5884 5883 5883 5883 5882 5882 5882 5881 5880 5880 5879 5878 5878 5877 5876 5876 5875 5874
5858 5859 5861 5861 5862 5863 5866 5867 5868 5868 5868 5869 5870 5870 5871 5872 5873 5874 5874 5874 5875 5876 5877 5877 5878 5878 5879 5879 5880 5880 5880 5881 5881 5881 5881 5881 5882 5882 5882 5882 5883 5883 5883 5883 5884 5884 5884 5884 5884 5885 5885 5885 5885 5885 5885 5886 5886 5886 5886 5886 5886 5886 5886 5887 5887 5887 5887 5887 5887 5887 5887 5887 5887 5887 5887 5886 5886 5885 5885 5885 5884 5884 5884 5884 5883 5883 5883 5882 5882 5882 5881 5881 5880 5879 5879 5878 5877 5877 5876 5876 5875 5874 5873
5856 5857 5858 5860 5861 5862 5863 5865 5866 5866 5866 5867 5868 5868 5869 5870 5871 5871 5872 5872 5873 5874 5875 5876 5876 5877 5877 5878 5878 5879 5879 5879 5880 5880 5880 5880 5880 5880 5881 5881 5882 5882 5882 5882 5882 5883 5883 5883 5883 5883 5884 5884 5884 5884 5884 5884 5885 5885 5885 5885 5885 5885 5885 5886 5886 5886 5886 5886 5886 5886 5886 5886 5886 5886 5886 5885 5885 5885 5884 5884 5883 5883 5883 5883 5882 5882 5882 5882 5881 5881 5880 5880 5879 5878 5878 5877 5877 5876 5875 5875 5874 5873 5872
5854 5855 5856 5858 5859 5860 5862 5863 5863 5864 5865 5865 5866 5867 5867 5868 5869 5869 5870 5871 5872 5872 5873 5874 5875 5875 5876 5876 5877 5877 5877 5878 5878 5878 5879 5879 5879 5879 5879 5880 5880 5881 5881 5881 5881 5881 5882 5882 5882 5882 5882 5882 5883 5883 5883 5883 5883 5883 5884 5884 5884 5884 5884 5884 5885 5885 5885 5885 5885 5885 5885 5885 5885 5885 5884 5884 5884 5884 5883 5883 5882 5882 5882 5882 5882 5881 5881 5881 5880 5880 5879 5879 5878 5877 5877 5876 5876 5875 5874 5874 5873 5872 5872
5852 5852 5854 5855 5857 5859 5860 5861 5862 5862 5862 5863 5863 5864 5865 5866 5867 5867 5868 5869 5870 5871 5871 5872 5873 5873 5874 5875 5875 5876 5876 5877 5877 5877 5877 5877 5877 5878 5878 5878 5879 5879 5879 5880 5880 5880 5880 5881 5881 5881 5881 5881 5882 5882 5882 5882 5882 5882 5882 5883 5883 5883 5883 5883 5883 5884 5884 5884 5884 5884 5884 5884 5884 5884 5883 5883 5883 5882 5882 5882 5882 5881 5881 5881 5881 5880 5880 5880 5879 5879 5878 5877 5877 5877 5876 5875 5875 5874 5873 5873 5872 5871 5871
5849 5850 5852 5852 5854 5856 5858 5859 5859 5859 5860 5861 5862 5862 5863 5864 5865 5866 5866 5867 5868 5869 5870 5870 5871 5872 5872 5873 5873 5874 5875 5875 5875 5876 5876 5876 5876 5876 5877 5877 5877 5878 5878 5878 5878 5879 5879 5879 5879 5880 5880 5880 5880 5881 5881 5881 5881 5881 5881 5882 5882 5882 5882 5882 5882 5882 5882 5883 5883 5883 5883 5883 5883 5882 5882 5882 5882 5882 5881 5881 5881 5880 5880 5880 5880 5879 5879 5878 5878 5878 5877 5877 5876 5876 5875 5874 5874 5873 5872 5872 5871 5870 5870
5847 5848 5849 5851 5851 5853 5856 5857 5857 5857 5858 5859 5860 5860 5861 5862 5863 5864 5864 5865 5866 5867 5868 5868 5869 5870 5871 5871 5872 5872 5873 5873 5874 5874 5874 5875 5875 5875 5875 5876 5876 5877 5877 5877 5877 5877 5877 5878 5878 5878 5878 5879 5879 5879 5879 5879 5880 5880 5880 5880 5881 5881 5881 5881 5881 5881 5882 5882 5882 5882 5882 5882 5882 5882 5882 5881 5881 5881 5880 5880 5879 5879 5879 5879 5878 5878 5878 5877 5877 5877 5876 5876 5875 5874 5874 5873 5873 5872 5872 5871 5870 5870 5869
5845 5846 5847 5848 5849 5850 5853 5856 5857 5855 5856 5857 5857 5857 5859 5860 5861 5862 5862 5863 5864 5865 5866 5867 5867 5868 5869 5869 5870 5871 5871 5872 5872 5872 5873 5873 5873 5873 5874 5874 5875 5875 5875 5876 5876 5876 5876 5877 5877 5877 5877 5877 5877 5878 5878 5878 5878 5878 5879 5879 5879 5879 5880 5880 5880 5880 5880 5880 5881 5881 5881 5881 5881 5880 5880 5880 5880 5880 5879 5879 5878 5878 5878 5877 5877 5877 5877 5876 5876 5875 5875 5874 5874 5873 5873 5872 5872 5871 5871 5870 5869 5868 5868
5842 5843 5845 5846 5847 5848 5850 5853 5853 5853 5854 5854 5854 5855 5856 5857 5858 5860 5861 5862 5862 5863 5864 5864 5865 5866 5867 5867 5868 5869 5869 5870 5870 5871 5871 5871 5872 5872 5872 5872 5873 5873 5874 5874 5874 5875 5875 5875 5875 5876 5876 5876 5876 5877 5877 5877 5877 5877 5877 5878 5878 5878 5878 5879 5879 5879 5879 5879 5879 5879 5879 5879 5879 5879 5879 5879 5879 5878 5878 5878 5877 5877 5877 5876 5876 5876 5876 5875 5875 5874 5874 5873 5873 5872 5872 5871 5871 5870 5870 5869 5868 5867 5867
5840 5841 5842 5843 5844 5845 5847 5850 5850 5850 5851 5852 5852 5852 5854 5855 5857 5858 5859 5860 5861 5861 5862 5862 5863 5864 5865 5866 5866 5867 5867 5868 5868 5869 5869 5870 5870 5870 5871 5871 5872 5872 5872 5872 5873 5873 5873 5874 5874 5874 5874 5875 5875 5875 5875 5876 5876 5876 5876 5877 5877 5877 5877 5877 5877 5878 5878 5878 5878 5878 5878 5878 5878 5878 5878 5878 5878 5877 5877 5877 5877 5876 5876 5875 5875 5875 5874 5874 5873 5873 5872 5872 5872 5871 5871 5870 5869 5869 5868 5868 5867 5867 5866
5838 5839 5840 5841 5841 5842 5844 5848 5848 5847 5847 5850 5851 5851 5852 5853 5854 5856 5857 5858 5858 5859 5860 5860 5861 5862 5863 5863 5864 5865 5866 5866 5867 5867 5867 5868 5868 5868 5869 5869 5870 5870 5871 5871 5871 5872 5872 5872 5872 5872 5873 5873 5873 5874 5874 5874 5874 5875 5875 5875 5876 5876 5876 5876 5876 5877 5877 5877 5877 5877 5877 5877 5877 5877 5877 5877 5877 5877 5876 5876 5875 5875 5875 5874 5874 5874 5873 5873 5872 5872 5871 5871 5870 5870 5869 5869 5868 5867 5867 5867 5866 5865 5865
5836 5837 5837 5838 5839 5839 5841 5844 5845 5845 5846 5847 5849 5850 5849 5851 5852 5853 5855 5856 5856 5857 5857 5858 5859 5860 5861 5862 5862 5863 5864 5864 5865 5865 5866 5866 5866 5867 5867 5867 5868 5869 5869 5869 5870 5870 5870 5871 5871 5871 5871 5872 5872 5872 5872 5873 5873 5873 5874 5874 5874 5874 5875 5875 5875 5875 5875 5876 5876 5876 5876 5876 5876 5876 5876 5876 5876 5875 5875 5875 5874 5874 5873 5873 5873 5872 5872 5872 5871 5871 5870 5870 5869 5868 5868 5867 5867 5866 5866 5865 5865 5864 5863
5833 5834 5835 5836 5836 5837 5838 5839 5841 5842 5845 5846 5847 5848 5848 5849 5850 5851 5852 5853 5854 5854 5855 5856 5857 5858 5859 5860 5860 5861 5862 5862 5862 5863 5863 5864 5864 5865 5865 5866 5867 5867 5867 5868 5868 5868 5869 5869 5869 5870 5870 5870 5871 5871 5871 5871 5872 5872 5872 5872 5873 5873 5873 5873 5874 5874 5874 5874 5874 5875 5875 5875 5875 5875 5875 5875 5874 5874 5874 5874 5873 5873 5872 5872 5872 5871 5871 5871 5870 5870 5869 5868 5868 5867 5867 5866 5866 5865 5865 5864 5863 5863 5862
5830 5832 5832 5833 5833 5834 5835 5836 5837 5839 5841 5843 5844 5846 5846 5847 5847 5849 5850 5851 5852 5852 5853 5854 5855 5856 5857 5857 5858 5859 5860 5860 5861 5861 5862 5862 5862 5863 5863 5864 5865 5865 5866 5866 5867 5867 5867 5867 5868 5868 5868 5869 5869 5869 5870 5870 5870 5871 5871 5871 5872 5872 5872 5872 5872 5872 5873 5873 5873 5873 5873 5873 5873 5873 5873 5873 5873 5873 5873 5872 5872 5872 5871 5871 5870 5870 5870 5869 5869 5868 5868 5867 5867 5866 5866 5865 5864 5864 5863 5863 5862 5862 5861
5827 5828 5830 5830 5830 5830 5832 5833 5834 5836 5837 5839 5841 5842 5844 5845 5846 5847 5848 5849 5849 5850 5851 5852 5853 5854 5855 5856 5856 5857 5857 5858 5858 5859 5859 5860 5861 5861 5862 5862 5863 5863 5864 5865 5865 5865 5866 5866 5866 5867 5867 5867 5867 5868 5868 5868 5869 5869 5869 5870 5870 5870 5871 5871 5871 5871 5871 5872 5872 5872 5872 5872 5872 5872 5872 5872 5872 5872 5871 5871 5871 5870 5870 5869 5869 5869 5868 5868 5867 5867 5867 5866 5865 5865 5864 5864 5863 5863 5862 5862 5861 5860 5860
5823 5826 5830 5828 5827 5828 5828 5830 5831 5832 5834 5836 5837 5839 5841 5843 5844 5845 5846 5846 5847 5848 5849 5850 5851 5852 5852 5853 5854 5855 5856 5856 5857 5857 5857 5858 5858 5859 5860 5861 5861 5862 5862 5863 5863 5863 5864 5864 5864 5865 5865 5866 5866 5866 5866 5867 5867 5867 5868 5868 5869 5869 5869 5869 5870 5870 5870 5870 5870 5871 5871 5871 5871 5871 5871 5871 5871 5870 5870 5870 5869 5869 5868 5868 5867 5867 5867 5867 5866 5866 5865 5865 5864 5864 5863 5862 5862 5862 5861 5860 5860 5859 5858
5819 5822 5825 5826 5827 5827 5825 5826 5828 5829 5831 5832 5834 5836 5838 5841 5842 5843 5844 5844 5845 5846 5847 5847 5849 5850 5851 5851 5852 5853 5853 5854 5854 5855 5855 5856 5857 5857 5858 5859 5859 5860 5860 5861 5861 5862 5862 5862 5863 5863 5863 5864 5864 5865 5865 5865 5866 5866 5866 5867 5867 5867 5867 5868 5868 5868 5868 5869 5869 5869 5869 5869 5869 5869 5869 5869 5869 5869 5868 5868 5868 5867 5867 5867 5866 5866 5865 5865 5865 5864 5864 5863 5863 5862 5862 5861 5861 5860 5860 5859 5858 5857 5857
5816 5818 5820 5821 5822 5823 5824 5824 5825 5826 5828 5829 5832 5834 5835 5838 5840 5841 5842 5842 5842 5843 5844 5845 5846 5847 5848 5849 5850 5850 5851 5852 5852 5852 5853 5854 5855 5855 5856 5857 5857 5858 5858 5859 5859 5860 5860 5861 5861 5862 5862 5862 5862 5863 5863 5864 5864 5864 5865 5865 5865 5866 5866 5866 5867 5867 5867 5867 5867 5867 5867 5867 5868 5868 5868 5867 5867 5867 5867 5867 5867 5866 5866 5865 5865 5864 5864 5864 5863 5863 5863 5862 5862 5861 5861 5860 5859 5859 5858 5857 5857 5856 5855
5813 5815 5818 5820 5818 5817 5818 5820 5822 5824 5825 5827 5829 5831 5833 5835 5837 5838 5839 5840 5840 5841 5842 5843 5844 5845 5846 5847 5847 5848 5849 5849 5850 5850 5851 5852 5852 5853 5854 5855 5855 5856 5857 5857 5857 5858 5858 5859 5859 5860 5860 5860 5861 5861 5862 5862 5862 5863 5863 5863 5864 5864 5864 5865 5865 5865 5865 5865 5866 5866 5866 5866 5866 5866 5866 5866 5866 5866 5865 5865 5865 5865 5864 5864 5863 5863 5863 5862 5862 5862 5861 5861 5860 5860 5859 5858 5858 5857 5857 5856 5855 5854 5853
5810 5812 5814 5817 5817 5814 5814 5817 5819 5821 5822 5824 5826 5828 5831 5832 5834 5835 5837 5838 5838 5838 5839 5840 5841 5842 5843 5844 5845 5846 5846 5847 5847 5848 5849 5850 5851 5851 5852 5853 5853 5854 5855 5855 5855 5856 5856 5857 5857 5858 5858 5859 5859 5859 5860 5860 5861 5861 5862 5862 5862 5862 5863 5863 5863 5863 5863 5864 5864 5864 5864 5864 5864 5864 5864 5864 5864 5864 5864 5864 5863 5863 5863 5862 5862 5862 5861 5861 5861 5860 5860 5859 5859 5858 5857 5857 5856 5855 5855 5854 5853 5852 5852
5807 5808 5810 5813 5814 5814 5813 5813 5815 5817 5819 5821 5823 5825 5828 5829 5831 5832 5834 5835 5835 5836 5837 5837 5839 5840 5841 5842 5842 5843 5844 5845 5845 5846 5847 5848 5848 5849 5850 5851 5851 5852 5852 5853 5853 5854 5854 5855 5855 5856 5856 5857 5857 5857 5858 5858 5859 5859 5860 5860 5860 5861 5861 5861 5862 5862 5862 5862 5862 5862 5862 5862 5862 5862 5862 5862 5862 5862 5862 5862 5862 5862 5862 5861 5861 5860 5860 5859 5859 5859 5858 5857 5857 5856 5856 5855 5854 5854 5853 5852 5852 5851 5850
5804 5806 5807 5809 5811 5812 5812 5812 5814 5815 5816 5818 5820 5822 5825 5827 5828 5829 5830 5832 5833 5833 5834 5835 5836 5837 5838 5839 5840 5841 5842 5843 5843 5844 5845 5846 5847 5847 5848 5849 5849 5850 5850 5851 5851 5852 5852 5853 5853 5854 5854 5855 5855 5856 5856 5857 5857 5857 5858 5858 5858 5859 5859 5859 5860 5860 5860 5860 5861 5861 5861 5861 5861 5861 5861 5861 5861 5861 5861 5861 5860 5860 5860 5859 5859 5859 5858 5858 5857 5857 5856 5856 5855 5854 5854 5853 5853 5852 5851 5851 5850 5849 5848
5801 5802 5804 5805 5807 5809 5811 5811 5812 5814 5814 5815 5817 5819 5821 5824 5825 5826 5827 5829 5830 5831 5831 5832 5833 5834 5836 5837 5838 5839 5840 5841 5841 5842 5843 5844 5844 5845 5846 5847 5847 5848 5848 5849 5849 5850 5850 5851 5851 5852 5852 5853 5853 5854 5854 5855 5855 5856 5856 5857 5857 5857 5857 5857 5858 5858 5858 5858 5859 5859 5859 5859 5859 5859 5859 5859 5859 5859 5859 5859 5859 5858 5858 5858 5857 5857 5857 5856 5856 5855 5855 5854 5853 5853 5852 5852 5851 5850 5850 5849 5848 5847 5846
5798 5799 5801 5802 5804 5806 5808 5809 5810 5811 5812 5813 5814 5816 5817 5820 5822 5823 5824 5826 5827 5827 5828 5829 5830 5832 5833 5834 5835 5837 5837 5838 5839 5840 5841 5841 5842 5843 5844 5844 5845 5846 5846 5847 5847 5847 5848 5848 5849 5849 5850 5851 5851 5852 5852 5853 5853 5854 5854 5855 5855 5855 5856 5856 5856 5856 5857 5857 5857 5857 5857 5857 5857 5857 5857 5857 5857 5857 5857 5857 5857 5857 5857 5856 5856 5855 5855 5854 5854 5853 5853 5852 5852 5851 5851 5850 5849 5849 5848 5847 5846 5845 5844
5795 5796 5798 5799 5801 5803 5805 5807 5808 5808 5809 5811 5812 5813 5814 5816 5819 5821 5821 5823 5824 5824 5825 5826 5827 5829 5830 5831 5832 5834 5835 5836 5837 5837 5838 5839 5840 5841 5841 5842 5842 5843 5844 5844 5845 5845 5846 5846 5847 5847 5848 5848 5849 5849 5850 5851 5851 5852 5852 5852 5853 5853 5854 5854 5854 5854 5855 5855 5855 5855 5855 5856 5856 5856 5856 5856 5856 5856 5856 5856 5855 5855 5855 5854 5854 5853 5853 5852 5852 5852 5851 5850 5850 5849 5849 5848 5847 5847 5846 5845 5844 5843 5842
5791 5793 5795 5796 5798 5800 5802 5804 5805 5806 5806 5808 5809 5810 5811 5813 5815 5817 5819 5820 5820 5821 5822 5823 5824 5826 5827 5828 5830 5831 5832 5833 5834 5835 5836 5837 5837 5838 5839 5839 5840 5841 5841 5842 5842 5843 5843 5844 5844 5845 5846 5846 5847 5847 5848 5849 5849 5850 5850 5851 5851 5851 5852 5852 5852 5852 5853 5853 5853 5853 5853 5854 5854 5854 5854 5854 5854 5854 5854 5854 5854 5853 5853 5852 5852 5852 5851 5851 5850 5850 5849 5848 5848 5847 5847 5846 5846 5845 5844 5843 5842 5841 5840
5787 5789 5791 5793 5795 5797 5799 5801 5802 5803 5804 5805 5806 5807 5808 5810 5812 5813 5815 5817 5817 5817 5818 5819 5821 5822 5824 5826 5827 5828 5829 5830 5832 5832 5833 5834 5835 5836 5836 5837 5837 5838 5839 5839 5840 5841 5841 5842 5842 5843 5843 5844 5845 5845 5846 5847 5847 5848 5848 5849 5849 5849 5850 5850 5850 5851 5851 5851 5852 5852 5852 5852 5852 5852 5852 5852 5852 5852 5852 5852 5852 5852 5851 5851 5850 5850 5849 5848 5848 5848 5847 5847 5846 5846 5845 5844 5844 5843 5842 5841 5840 5839 5838
5784 5786 5788 5790 5792 5794 5796 5797 5799 5801 5802 5802 5802 5803 5804 5806 5807 5809 5810 5812 5813 5813 5814 5816 5818 5819 5822 5823 5824 5825 5827 5827 5829 5830 5831 5832 5832 5833 5833 5834 5835 5835 5836 5837 5837 5838 5839 5839 5840 5841 5841 5842 5842 5843 5844 5845 5845 5846 5846 5847 5847 5847 5848 5848 5848 5849 5849 5849 5850 5850 5850 5850 5850 5851 5851 5851 5850 5850 5850 5850 5850 5849 5849 5848 5848 5847 5847 5847 5846 5846 5846 5845 5845 5844 5843 5842 5842 5841 5840 5839 5838 5837 5836
5781 5782 5784 5786 5788 5790 5792 5793 5795 5797 5798 5797 5798 5799 5802 5803 5803 5804 5805 5807 5808 5810 5810 5813 5815 5816 5818 5820 5822 5822 5823 5825 5826 5827 5828 5829 5829 5830 5831 5831 5832 5833 5833 5834 5835 5836 5836 5837 5837 5838 5839 5840 5840 5841 5842 5842 5843 5844 5844 5845 5845 5846 5846 5846 5847 5847 5847 5847 5847 5848 5848 5848 5848 5849 5849 5849 5848 5848 5848 5848 5847 5847 5847 5846 5846 5845 5845 5845 5844 5844 5844 5843 5843 5842 5841 5841 5840 5839 5838 5837 5836 5835 5834
5777 5779 5781 5783 5784 5786 5788 5790 5792 5793 5795 5795 5795 5796 5799 5800 5800 5800 5801 5802 5804 5806 5807 5809 5811 5813 5815 5817 5818 5820 5821 5822 5823 5824 5825 5826 5827 5827 5828 5829 5829 5830 5831 5832 5832 5833 5834 5834 5835 5836 5837 5837 5838 5839 5840 5840 5841 5842 5842 5842 5843 5843 5844 5844 5845 5845 5845 5845 5846 5846 5846 5847 5847 5847 5847 5847 5847 5846 5846 5846 5845 5845 5844 5844 5843 5843 5843 5843 5842 5842 5842 5841 5841 5840 5839 5839 5838 5837 5837 5835 5834 5833 5832
5774 5775 5777 5779 5781 5782 5784 5786 5787 5790 5792 5793 5793 5794 5796 5798 5799 5799 5798 5799 5800 5802 5804 5806 5808 5811 5812 5814 5816 5817 5818 5819 5820 5821 5822 5822 5823 5824 5825 5826 5826 5827 5828 5829 5829 5830 5831 5832 5832 5833 5834 5835 5836 5837 5837 5838 5839 5839 5840 5841 5841 5842 5842 5842 5842 5843 5843 5843 5844 5844 5844 5844 5845 5845 5845 5845 5844 5844 5844 5843 5843 5843 5842 5842 5842 5841 5841 5841 5841 5841 5840 5839 5838 5838 5837 5837 5836 5836 5835 5833 5832 5831 5830
5770 5772 5773 5775 5777 5779 5781 5782 5784 5786 5787 5789 5790 5791 5792 5796 5798 5799 5798 5797 5797 5799 5801 5803 5805 5807 5809 5811 5812 5814 5815 5816 5817 5818 5818 5819 5820 5821 5822 5823 5823 5824 5825 5826 5827 5827 5828 5829 5830 5831 5832 5833 5834 5834 5835 5836 5837 5837 5838 5838 5839 5839 5840 5840 5840 5841 5841 5841 5842 5842 5842 5842 5842 5842 5842 5842 5842 5842 5842 5841 5841 5841 5840 5840 5839 5839 5839 5839 5839 5838 5838 5837 5836 5836 5836 5835 5834 5833 5832 5831 5830 5829 5827
5767 5768 5770 5772 5774 5775 5777 5778 5780 5782 5783 5785 5787 5788 5789 5793 5796 5797 5796 5795 5795 5797 5798 5800 5802 5804 5806 5808 5809 5810 5811 5812 5813 5814 5815 5816 5817 5818 5819 5819 5820 5821 5822 5823 5824 5825 5826 5827 5828 5829 5830 5831 5832 5832 5833 5833 5834 5835 5836 5836 5837 5837 5837 5838 5838 5838 5839 5839 5839 5840 5840 5840 5840 5840 5840 5840 5840 5840 5839 5839 5839 5838 5838 5838 5837 5837 5837 5837 5837 5836 5835 5835 5834 5834 5834 5833 5832 5831 5830 5829 5828 5827 5825
5763 5764 5766 5768 5770 5772 5773 5775 5777 5778 5780 5782 5783 5785 5786 5789 5792 5793 5793 5793 5793 5794 5795 5797 5799 5801 5802 5805 5806 5807 5807 5808 5809 5810 5811 5812 5813 5814 5815 5817 5817 5818 5819 5820 5821 5822 5823 5824 5825 5826 5827 5828 5829 5830 5831 5831 5832 5832 5833 5834 5834 5835 5835 5835 5836 5836 5837 5837 5837 5837 5838 5838 5838 5838 5838 5838 5837 5837 5837 5837 5836 5836 5836 5836 5836 5835 5835 5835 5834 5834 5833 5833 5832 5832 5832 5831 5830 5829 5827 5827 5826 5824 5823
5759 5761 5762 5765 5767 5768 5770 5771 5772 5774 5777 5778 5780 5782 5783 5785 5788 5790 5791 5791 5791 5791 5792 5794 5795 5797 5799 5801 5802 5802 5803 5804 5806 5807 5808 5809 5810 5811 5812 5813 5815 5816 5817 5818 5819 5820 5821 5822 5823 5824 5825 5826 5827 5827 5828 5829 5830 5830 5831 5832 5832 5832 5832 5833 5833 5834 5834 5834 5835 5835 5835 5836 5836 5836 5835 5835 5835 5835 5834 5834 5834 5834 5834 5834 5833 5833 5833 5832 5832 5832 5831 5831 5831 5830 5830 5829 5828 5827 5826 5825 5823 5822 5822
5755 5757 5758 5761 5763 5765 5766 5767 5769 5771 5773 5775 5777 5778 5780 5782 5785 5787 5789 5789 5789 5789 5789 5790 5792 5793 5795 5796 5797 5798 5799 5801 5802 5803 5804 5805 5806 5808 5809 5811 5812 5813 5814 5815 5816 5817 5818 5819 5821 5821 5822 5823 5824 5825 5826 5827 5827 5828 5828 5829 5829 5830 5830 5830 5831 5831 5832 5832 5832 5832 5833 5833 5833 5833 5833 5832 5832 5832 5832 5832 5832 5832 5832 5832 5831 5831 5831 5830 5830 5830 5829 5829 5828 5828 5827 5827 5825 5824 5823 5822 5822 5820 5819
5752 5753 5755 5757 5759 5761 5763 5764 5766 5767 5769 5771 5773 5775 5777 5778 5781 5784 5787 5787 5787 5787 5787 5787 5787 5789 5790 5791 5793 5795 5796 5797 5798 5800 5801 5801 5803 5805 5806 5808 5809 5811 5812 5813 5813 5814 5816 5817 5818 5819 5820 5821 5822 5823 5823 5824 5825 5825 5826 5827 5827 5827 5827 5828 5828 5828 5829 5829 5830 5830 5830 5830 5830 5830 5830 5830 5830 5830 5830 5829 5829 5829 5829 5829 5829 5828 5828 5828 5828 5827 5827 5827 5826 5826 5825 5824 5823 5822 5821 5820 5819 5818 5817
5748 5749 5751 5753 5755 5757 5759 5761 5762 5763 5765 5768 5770 5772 5773 5775 5777 5781 5783 5784 5784 5784 5784 5784 5784 5784 5785 5787 5788 5791 5792 5793 5795 5796 5797 5798 5800 5802 5803 5805 5806 5807 5808 5810 5811 5812 5813 5814 5815 5817 5817 5818 5819 5820 5821 5822 5822 5823 5823 5824 5824 5824 5825 5825 5825 5826 5826 5827 5827 5827 5827 5827 5828 5828 5828 5828 5827 5827 5827 5827 5827 5827 5827 5827 5827 5826 5826 5826 5826 5826 5825 5825 5824 5823 5823 5822 5821 5820 5819 5817 5817 5816 5815
5744 5746 5747 5749 5751 5753 5755 5757 5758 5760 5762 5763 5766 5768 5770 5771 5774 5777 5780 5781 5781 5781 5782 5782 5782 5782 5782 5783 5785 5787 5788 5790 5791 5792 5794 5796 5797 5799 5800 5801 5802 5803 5805 5806 5807 5809 5810 5812 5813 5814 5815 5816 5817 5818 5818 5819 5819 5820 5821 5821 5821 5822 5822 5822 5822 5823 5823 5824 5824 5825 5825 5825 5825 5825 5825 5825 5825 5825 5825 5825 5824 5824 5824 5824 5824 5823 5823 5824 5824 5824 5823 5822 5822 5821 5820 5820 5819 5818 5817 5816 5814 5813 5812
5741 5742 5743 5745 5747 5749 5751 5753 5755 5756 5757 5759 5762 5764 5766 5768 5770 5772 5775 5777 5778 5779 5779 5780 5781 5782 5781 5781 5781 5782 5784 5786 5788 5790 5791 5793 5794 5795 5795 5797 5798 5800 5803 5804 5805 5806 5808 5809 5811 5812 5813 5813 5814 5815 5816 5816 5817 5817 5817 5818 5818 5819 5819 5819 5820 5820 5821 5822 5822 5822 5822 5822 5822 5823 5823 5823 5822 5822 5822 5822 5822 5822 5822 5822 5821 5821 5822 5822 5822 5822 5821 5820 5820 5819 5818 5817 5817 5816 5814 5813 5812 5811 5810
5737 5738 5740 5741 5743 5745 5747 5749 5751 5752 5753 5755 5758 5761 5762 5764 5767 5768 5770 5772 5774 5775 5776 5777 5779 5780 5780 5778 5778 5779 5782 5783 5785 5787 5788 5789 5789 5790 5791 5793 5796 5798 5800 5801 5802 5803 5805 5807 5808 5809 5810 5811 5811 5812 5812 5813 5814 5814 5815 5815 5815 5816 5816 5817 5817 5817 5818 5819 5819 5819 5820 5820 5820 5820 5820 5820 5820 5820 5819 5819 5819 5819 5819 5819 5818 5819 5820 5821 5820 5820 5819 5818 5817 5817 5816 5815 5814 5813 5812 5811 5810 5809 5808
5733 5735 5737 5738 5739 5741 5743 5745 5747 5748 5750 5751 5754 5757 5758 5760 5762 5764 5766 5767 5769 5770 5772 5774 5776 5777 5777 5775 5775 5777 5779 5780 5782 5783 5784 5785 5786 5787 5789 5792 5794 5796 5797 5797 5799 5801 5804 5806 5806 5806 5807 5807 5808 5809 5810 5811 5811 5811 5812 5812 5812 5813 5813 5814 5814 5815 5815 5816 5816 5817 5817 5817 5818 5818 5818 5817 5817 5817 5817 5817 5817 5817 5817 5816 5816 5817 5818 5818 5817 5817 5816 5816 5815 5814 5813 5812 5812 5811 5810 5809 5808 5807 5806
5729 5731 5732 5734 5735 5736 5737 5741 5743 5744 5746 5747 5750 5752 5754 5755 5757 5759 5762 5763 5765 5767 5768 5770 5772 5774 5775 5774 5773 5773 5775 5777 5778 5779 5781 5782 5783 5785 5787 5789 5791 5792 5793 5794 5797 5800 5802 5803 5803 5802 5803 5804 5805 5806 5807 5808 5808 5808 5809 5809 5809 5810 5810 5811 5812 5812 5812 5813 5813 5814 5814 5815 5815 5815 5815 5815 5814 5814 5814 5814 5814 5814 5814 5813 5814 5815 5816 5816 5815 5814 5814 5813 5812 5812 5811 5810 5809 5808 5807 5806 5805 5805 5804
5724 5726 5728 5730 5732 5733 5735 5737 5739 5740 5742 5743 5745 5747 5750 5752 5754 5756 5757 5759 5761 5762 5764 5766 5768 5770 5772 5774 5774 5772 5772 5773 5774 5776 5777 5779 5780 5782 5783 5785 5787 5789 5791 5793 5796 5798 5799 5799 5799 5799 5799 5801 5802 5803 5804 5805 5805 5805 5806 5806 5807 5807 5807 5808 5808 5809 5810 5810 5811 5811 5812 5812 5812 5812 5812 5812 5812 5811 5811 5811 5811 5811 5811 5811 5812 5813 5813 5813 5812 5812 5811 5811 5810 5809 5808 5807 5806 5805 5805 5804 5803 5802 5802
5719 5722 5724 5726 5728 5729 5731 5733 5734 5736 5738 5740 5741 5743 5746 5749 5751 5752 5753 5755 5757 5759 5761 5763 5765 5767 5768 5772 5773 5772 5770 5770 5771 5773 5774 5775 5777 5778 5780 5782 5785 5787 5788 5790 5792 5793 5794 5794 5794 5795 5797 5798 5799 5799 5801 5801 5802 5802 5802 5803 5803 5804 5804 5805 5805 5806 5807 5807 5808 5809 5809 5809 5810 5810 5809 5809 5809 5809 5808 5808 5809 5809 5809 5809 5810 5810 5810 5810 5810 5809 5808 5808 5807 5806 5805 5804 5803 5803 5802 5801 5801 5800 5799
5713 5716 5719 5721 5723 5725 5727 5728 5731 5733 5734 5736 5738 5740 5742 5745 5746 5747 5749 5752 5754 5756 5758 5760 5762 5763 5764 5765 5767 5768 5767 5767 5769 5770 5772 5772 5773 5775 5777 5779 5781 5782 5784 5786 5787 5788 5789 5790 5791 5792 5794 5795 5795 5796 5797 5797 5798 5799 5799 5800 5800 5800 5801 5802 5802 5803 5804 5805 5805 5806 5806 5807 5807 5807 5807 5806 5806 5806 5806 5806 5806 5806 5806 5807 5807 5808 5807 5807 5807 5806 5806 5805 5804 5803 5802 5802 5801 5800 5800 5799 5798 5797 5797
5708 5711 5714 5717 5719 5721 5723 5725 5727 5729 5730 5732 5734 5736 5738 5740 5742 5744 5746 5748 5750 5752 5754 5756 5758 5759 5760 5760 5761 5762 5763 5765 5767 5767 5768 5768 5770 5772 5774 5775 5777 5779 5781 5782 5784 5785 5786 5787 5788 5789 5791 5791 5792 5793 5793 5794 5795 5795 5796 5796 5797 5797 5797 5798 5799 5800 5801 5802 5802 5803 5803 5803 5803 5804 5803 5803 5803 5803 5803 5804 5804 5804 5804 5805 5805 5805 5805 5805 5804 5803 5803 5802 5801 5800 5800 5799 5798 5798 5797 5797 5796 5795 5794
5702 5706 5708 5711 5714 5717 5719 5721 5723 5725 5727 5729 5731 5732 5734 5736 5739 5741 5741 5743 5746 5747 5750 5752 5754 5756 5756 5756 5757 5759 5761 5762 5763 5764 5765 5765 5767 5768 5771 5772 5774 5776 5778 5779 5781 5782 5783 5784 5785 5786 5787 5788 5789 5790 5790 5791 5791 5792 5792 5792 5793 5793 5794 5795 5796 5797 5798 5798 5799 5800 5800 5800 5800 5800 5801 5801 5801 5801 5801 5801 5801 5801 5802 5802 5802 5802 5802 5802 5802 5801 5800 5799 5798 5798 5797 5797 5796 5796 5795 5795 5794 5793 5792